Regional Weather Roundup
Issued by NWS

Home | Current Version | Previous Version | Graphics & Text | Print | Product List | Glossary On
Versions: 1 2 3 4 5 6 7 8 9 10 11 12 13 14 15 16 17 18 19 20 21 22 23 24 25 26 27 28 29 30 31 32 33 34 35 36 37 38 39 40 41 42 43 44 45 46 47 48 49 50
354
ASUS43 KMPX 230110
RWRMN
WEATHER ROUNDUP FOR MINNESOTA
NATIONAL WEATHER SERVICE TWIN CITIES/CHANHASSEN MN
800 PM CDT TUE AUG 22 2017


NOTE: "FAIR" INDICATES FEW OR NO CLOUDS BELOW 12,000 FEET WITH NO
SIGNIFICANT WEATHER AND/OR OBSTRUCTIONS TO VISIBILITY. N/A MEANS
CURRENT SKY AND/OR WEATHER CONDITIONS ARE NOT AVAILABLE.

MNZ060>063-068>070-230200-
   Twin Cities Metro

CITY           SKY/WX    TMP DP  RH WIND       PRES   REMARKS
TWIN CITIES    PTCLDY    69  48  47 NW12      30.03S
ST PAUL        CLEAR     69  48  47 W10       30.03S
CRYSTAL        PTCLDY    68  47  46 W7        30.02S
BLAINE         CLEAR     70  48  46 W8        30.03S
LAKEVILLE      CLEAR     63  50  63 W6        30.04F
EDEN PRAIRIE   CLEAR     69  49  48 W6        30.03S
SOUTH ST PAUL  CLEAR     70  46  42 W7        30.03S
LAKE ELMO      FAIR      66  50  55 NW6       30.04S
$$
MNZ001>005-007-008-013>017-022>024-027-028-230200-
   Northwest Minnesota

CITY           SKY/WX    TMP DP  RH WIND       PRES   REMARKS
BEMIDJI        MOCLDY    64  50  59 NW10      30.03S
HALLOCK        CLEAR     68  50  52 N10       30.06R
ROSEAU         CLOUDY    64  55  72 NW7       30.04R
WARROAD        PTCLDY    61  54  77 NW9       30.04R
THIEF RVR FALL CLEAR     66  49  54 NW9       30.06R
CROOKSTON      CLEAR     66  45  45 N9        30.06R
FOSSTON        CLEAR     66  46  48 NW8       30.05S
DETROIT LAKES  CLEAR     64  46  52 NW6       30.07S
MOORHEAD       CLEAR     66  45  45 NW6       30.07S
PARK RAPIDS    CLEAR     65  47  52 NW8       30.04R
MAHNOMEN       FAIR      64  46  50 NW8       30.05S
$$
MNZ006-009>011-018-025>026-230200-
   North Central Minnesota

CITY           SKY/WX    TMP DP  RH WIND       PRES   REMARKS
BAUDETTE       PTCLDY    61  52  72 NW10      30.01R
FLAG ISLAND    PTCLDY    63  50  63 N7        30.01S
INTL FALLS     PTCLDY    60  49  66 NW9G20    29.98R
WASKISH        MOCLDY    63  54  72 NW8       30.02R
BIG FORK       PTCLDY    61  52  72 CALM      30.00S
LONGVILLE      CLOUDY    64  50  59 NW6       30.02R
GRAND RAPIDS   PTCLDY    62  52  69 NW7       30.02R
CRANE LAKE     PTCLDY    59  54  82 CALM      29.97R
ORR            CLEAR     59  54  82 NW7       29.95R
COOK           PTCLDY    59  54  82 W6        29.98R
WALKER         MOCLDY    63  50  62 NW5       30.03R
$$
MNZ012-019>021-037-230200-
   Northeast Minnesota

CITY           SKY/WX    TMP DP  RH WIND       PRES   REMARKS
DULUTH         PTCLDY    60  52  74 NW9       29.97R
ELY            LGT RAIN  55  55 100 NW5       29.95R
HIBBING        CLEAR     56  53  90 NW7       29.98R
EVELETH        CLEAR     60  48  65 NW10      29.98S
DULUTH HARBOR  PTCLDY    66  55  68 W16       29.96R
TWO HARBORS    PTCLDY    64  55  72 CALM      29.93R
SILVER BAY     MOCLDY    61  57  88 CALM      29.92R
GRAND MARAIS     N/A     58  56  93 W3        29.88R
G MARAIS ARPRT PTCLDY    54  48  82 W5        29.90S
$$
MNZ029>031-032-039>041-046>048-054>057-064-230200-
   West Central Minnesota

CITY           SKY/WX    TMP DP  RH WIND       PRES   REMARKS
FERGUS FALLS   CLEAR     64  52  63 NW7       30.06S
WHEATON        CLEAR     66  48  52 W5        30.10S
MORRIS         CLEAR     66  52  59 NW6       30.07F
ALEXANDRIA     CLEAR     65  49  56 W7        30.08S
ELBOW LAKE     FAIR      64  50  60 NW6       30.07F
WADENA         CLEAR     63  45  51 NW5       30.05S
GLENWOOD       CLEAR     64  48  55 W7        30.08S
APPLETON       CLEAR     66  52  59 NW3       30.08F
BENSON         CLEAR     64  54  68 NW3       30.10S
ORTONVILLE     CLEAR     68  48  49 MISG      30.09S
MADISON        CLEAR     70  55  60 NW3       30.10S
WILLMAR        FAIR      66  55  68 W5        30.09S
$$
MNZ033>034-036-042>043-049>051-058-059-230200-
   Central Minnesota

CITY           SKY/WX    TMP DP  RH WIND       PRES   REMARKS
ST CLOUD       CLEAR     67  48  50 W9        30.03S
SAUK CENTRE    FAIR      66  50  57 W6        30.06S
PAYNESVILLE    CLEAR     62  53  72 W5        30.07S
AITKIN         CLOUDY    64  48  55 CALM      30.00S
PINE RIVER     MOCLDY    64  45  48 W3        30.05S
BRAINERD       PTCLDY    67  43  41 W6        30.03R
STAPLES        CLEAR     63  45  51 NW5       30.05R
LONG PRAIRIE   FAIR      64  46  52 SW6       30.06S
LITTLE FALLS   CLEAR     64  43  45 NW3       30.04S
LITCHFIELD     CLEAR     66  52  59 CALM      30.08R
BUFFALO        CLEAR     67  47  48 W7        30.06R
MAPLE LAKE     CLEAR     67  50  54 W3        30.06R
HUTCHINSON     CLEAR     64  55  71 W6        30.08S
$$
MNZ037-044-045-052-053-230200-
   East Central Minnesota

CITY           SKY/WX    TMP DP  RH WIND       PRES   REMARKS
PRINCETON      CLEAR     66  50  55 W3        30.03S
MORA           CLEAR     64  50  59 CALM      30.03R
CAMBRIDGE      CLEAR     70  52  52 W3        30.02S
RUSH CITY      CLEAR     63  51  63 W3        30.01S
MOOSE LAKE     CLOUDY    63  48  59 CALM      29.98R
HINCKLEY       FAIR      64  52  63 W3        30.00S
CLOQUET        PTCLDY    63  48  59 W7        29.98S
MCGREGOR       CLOUDY    64  48  55 NW7       30.01R
$$
MNZ071>073-080-081-089-090-097-098-230200-
   Southwest Minnesota

CITY           SKY/WX    TMP DP  RH WIND       PRES   REMARKS
MONTEVIDEO     CLEAR     66  48  52 N3        30.10S
GRANITE FALLS  CLEAR     67  55  65 NW5       30.11S
CANBY          CLEAR     68  53  58 CALM      30.12S
MARSHALL       CLEAR     67  52  58 NW6       30.10F
REDWOOD FALLS  CLEAR     66  49  54 NW5       30.08F
OLIVIA         CLEAR     64  52  63 NW3       30.08S
PIPESTONE      CLEAR     68  48  49 NW3       30.13S
WINDOM         CLEAR     63  54  72 NW5       30.11S
WORTHINGTON    CLEAR     64  52  64 W6        30.13S
JACKSON        CLEAR     63  52  67 CALM      30.12S
TRACY          CLEAR     65  55  69 NW3       30.11S
SLAYTON        CLEAR     65  50  57 W5        30.13F
$$
MNZ065>067-074>077-082>085-091>093-230200-
   South Central Minnesota

CITY           SKY/WX    TMP DP  RH WIND       PRES   REMARKS
MANKATO        CLEAR     65  51  60 W6        30.08S
NEW ULM        CLEAR     64  52  63 NW6       30.08F
ST JAMES       CLEAR     63  54  72 W5        30.10F
FAIRMONT       CLEAR     64  53  67 NW6       30.11R
GLENCOE        CLEAR     66  55  65 W6        30.06F
FARIBAULT      CLEAR     63  52  67 W5        30.06F
OWATONNA       CLEAR     63  54  72 W6        30.07S
WASECA         CLEAR     63  52  67 NW5       30.09S
ALBERT LEA     CLEAR     66  54  63 NW3       30.08S
$$
MNZ078>079-086>088-094>096-230200-
   Southeast Minnesota

CITY           SKY/WX    TMP DP  RH WIND       PRES   REMARKS
ROCHESTER      CLEAR     61  51  70 W9        30.06S
RED WING       CLEAR     66  45  45 NW3       30.01F
STANTON        CLEAR     64  51  62 W3        30.03S
DODGE CENTER   CLEAR     64  48  55 W8        30.06S
WINONA         CLEAR     70  50  49 W5        30.02R
AUSTIN         CLEAR     64  48  55 NW7       30.07S
PRESTON        CLEAR     62  49  62 NW8       30.06R
$$
ABBREVIATIONS USED IN REMARKS
   TC - TEMPERATURES IN CELSIUS
  WCI - WIND CHILL INDEX
   HX - HEAT INDEX
  VSB - VISIBILITY
$$




USA.gov is the U.S. government's official web portal to all federal, state and local government web resources and services.